Home   Weather   Aspen   Past weeks

Flag for USA Past Weather in Aspen, Colorado, USA — Yesterday and Last 2 Weeks

Now
39 °F

Mostly cloudy.


Feels Like: 37 °F
Forecast: 22 / 36 °F
Wind: 3 mph from North

Location: Aspen-Pitkin County Airport

Current Time: Dec 11, 2016 at 3:03:26 am

Latest Report: Dec 11, 2016 at 1:53 am


Visibility: 10 mi

Pressure: 29.66 "Hg (22.03 "Hg at 2411m altitude)

Humidity: 73%

Dew Point: 31 °F

Location of AspenLocation

Past Weather in Aspen — Graph

°F

Aspen Temperature Yesterday

Maximum temperature yesterday: 40 °F (at 12:53 pm)
Minimum temperature yesterday: 25 °F (at 3:53 am)
Average temperature yesterday: 33 °F

High & Low Weather Summary for the Past Weeks

 TemperatureHumidityPressure
High44 °F (Nov 26, 1:53 pm)100% (Nov 27, 5:58 am)30.50 "Hg (Nov 27, 5:58 am)
Low-8 °F (Dec 8, 1:53 am)20% (Nov 26, 1:53 pm)29.39 "Hg (Nov 28, 12:53 pm)
Average21 °F74%29.95 "Hg
* Reported Nov 26 1:53 am — Dec 11 1:53 am, Aspen, Weather by CustomWeather, © 2016

Note: Actual official high and low records may vary slightly from our data, if they occured in-between our weather recording intervals... More about our weather records

Advertising

Aspen Weather History for the Previous 24 Hours

Scroll right to see more
 ConditionsComfort  
Time TempWeatherWind HumidityBarometerVisibility
1:53 am
Sun, Dec 11
39 °FMostly cloudy.3 mph73%29.66 "Hg10 mi
12:53 am35 °FOvercast.No wind85%29.67 "Hg10 mi
11:53 pm
Sat, Dec 10
37 °FMostly cloudy.6 mph79%29.70 "Hg10 mi
10:53 pm34 °FOvercast.6 mph88%29.73 "Hg10 mi
9:53 pm33 °FMostly cloudy.5 mph92%29.72 "Hg10 mi
8:53 pm33 °FOvercast.No wind96%29.79 "Hg10 mi
7:53 pm33 °FOvercast.No wind92%29.83 "Hg10 mi
6:53 pm33 °FOvercast.No wind92%29.88 "Hg10 mi
5:53 pm34 °FLight rain. Overcast.No wind88%29.89 "Hg10 mi
4:53 pm34 °FMostly cloudy.No wind85%29.89 "Hg7 mi
3:53 pm36 °FOvercast.6 mph75%29.87 "Hg10 mi
2:53 pm38 °FOvercast.7 mph70%29.87 "Hg9 mi
1:53 pm39 °FMore clouds than sun.9 mph67%29.88 "Hg10 mi
12:53 pm40 °FOvercast.8 mph55%29.88 "Hg9 mi
11:53 am39 °FOvercast.8 mph57%29.91 "Hg10 mi
10:53 am38 °FOvercast.No wind63%29.90 "Hg10 mi
9:53 am36 °FPartly sunny.6 mph67%29.98 "Hg10 mi
8:53 am32 °FOvercast.No wind73%29.98 "Hg10 mi
7:53 am30 °FPassing clouds.5 mph75%30.00 "Hg10 mi
6:53 am27 °FClear.7 mph81%30.03 "Hg10 mi
5:53 am26 °FOvercast.5 mph84%30.07 "Hg10 mi
4:53 am26 °FPassing clouds.6 mph84%30.08 "Hg10 mi
3:53 am25 °FPassing clouds.9 mph85%30.09 "Hg10 mi
Weather by CustomWeather, © 2016

See weather overviewHow to use our weather pages